ATLAS 5 CENTAUR DEB, 46667

Orbit data source: Space-Track

ATLAS 5 CENTAUR DEB, 46667 is space debris in HEO originally from a launch on Wed, 17 Oct 2018 UTC launched from the Air Force Eastern Test Range (AFETR). Debris objects in space refer to the collection of defunct objects orbiting the Earth. Examples of debris include non-operational satellites, rocket bodies, and fragments generated from explosions, collisions, or faulty payload assembly.

Loading next visibility...
Identifier
46667, 2018-079CV
Orbit
HEO
Country
Flag of USUS
Related business
Flag of USUnited Launch Alliance/Lockheed Martin (US)
Manufacturer
ULA Decatur
Mission
Spacecraft
Bus & Motor
Unknown
Mass
Unknown
Launch date (UTC)
2018-10-17 (8 years ago)
Launch vehicle
Unknown
Launch site
Air Force Eastern Test Range (AFETR)
Object type
Payload
Rocket body
Debris
Shape & HBR
Unknown shape, 1.1 m
Radar Cross Section
RCS unknown

Expand to show TLE details & history
Last TLE update: 15 hours ago

TLE from 15 hours ago
0 ATLAS 5 CENTAUR DEB
1 46667U 18079CV  26126.28543573 -.00000149  00000-0  00000-0 0  9993
2 46667  13.5007   9.0990 4544719   9.2996 356.9927  1.95402239 39753
Epoch: 2026-05-06T06:51Z
TLE epoch observation values (Epoch: 2026-05-06T06:51:01.647Z)
Latitude
-0.00001°
Longitude
42.17559°
Altitude
8,413.424 km
Speed
6.257 km/s
True Right ascension
00h 36m 19s
True Declination
0° 00' 00"
Sunlit
Object was in daylight at epoch
Visualization orbit readout
Latitude
Unknown
Longitude
Unknown
Altitude
Unknown
Speed
Unknown
Apparent Right ascension
Unknown
Apparent Declination
Unknown
Sunlit
N/A
Visualization observer readout
Local Sidereal Time
05:34:23
Azimuth
Unknown
Elevation
Unknown
Doppler factor
Unknown
Orbital elements
Apogee altitude
32,933.558 km
Perigee altitude
8,366.482 km
Semi-major axis
27,028.157 km
Eccentricity
0.45447
Inclination
13.5007°
RAAN
9.099°
Arg. of periapsis
9.2996°
True anomaly
351.02174°
Mean anomaly
356.9927°
Eccentric anomaly
354.49442°
Mean motion
0.48845 °/min
Orbital period
737.03 mins
BSTAR
0
Loading maneuver chart data...
Computing Atmospheric mass density...

Documentation

Showing up to 5 results
|